{"data":{"norad_id":61249,"intl_designator":"2024-175G","name":"STARLINK-11293 [DTC]","alt_names":[],"object_type":"PAYLOAD","status":"ACTIVE","operator":null,"country":"US","launch_date":"2024-09-25","launch_site_code":"AFWTR","launch_vehicle":null,"mission":null,"orbit_class":"UNKNOWN","rcs_meters":null,"size_class":null,"mass_kg":null,"dimensions":null,"purposes":["comms"],"wikipedia_slug":null,"has_3d_model":false,"image_url":null,"decayed_at":null,"tle_current":{"epoch":"2026-05-25T02:40:04.006272Z","epoch_age_seconds":68745,"freshness":"FRESH","line1":"1 61249U 24175G   26145.11115748  .00000963  00000+0  12810-4 0  9990","line2":"2 61249  53.1593  39.2147 0000934 100.3900 259.7223 15.69700577 95376","mean_motion":15.69700577,"eccentricity":9.34e-5,"inclination_deg":53.1593,"raan_deg":39.2147,"arg_perigee_deg":100.39,"mean_anomaly_deg":259.7223,"bstar":1.281e-5,"rev_number":9537,"period_min":91.737240917126,"perigee_km":359.12439658091,"apogee_km":360.38303456658,"semimajor_km":6737.8907155737,"source":"CELESTRAK","updated_at":"2026-05-25T13:38:19.365072Z"}}}